Weather History for KPSF - March, 2014

Change the Weather History Date:

Thursday, March 27, 2014

  Actual Average Record
Temperature  
Mean Temperature 25 °F 36 °F  
Max Temperature 36 °F 46 °F 70 °F (1945)
Min Temperature 13 °F 26 °F 12 °F (1966)
Degree Days  
Heating Degree Days 40 29  
Month to date heating degree days 1124 914  
Since 1 July heating degree days 6676 6294  
Cooling Degree Days 0 0  
Month to date cooling degree days 0 0  
Year to date cooling degree days 0 0  
Moisture  
Dew Point 6 °F    
Average Humidity 48    
Maximum Humidity 67    
Minimum Humidity 29    
Precipitation  
Precipitation 0.00 in 0.14 in 1.00 in (1932)
Month to date precipitation 1.06 2.82  
Year to date precipitation 7.44 8.42  
Sea Level Pressure  
Sea Level Pressure 30.25 in    
Wind  
Wind Speed 8 mph (WSW)    
Max Wind Speed 16 mph    
Max Gust Speed 24 mph    
Visibility 10 miles    
Events      
T = Trace of Precipitation, MM = Missing Value Source: NWS Daily Summary

Daily Weather History Graph

Daily Weather History Graph

Search for Another Location

Airport or City:

Trip Planner

Search our weather history database for the weather conditions in past years. The results will help you decide how hot, cold, wet, or windy it might be!

Date:

Astronomy

Mar. 27, 2014 Rise Set
Actual Time 6:44 AM EDT 7:13 PM EDT
Civil Twilight 6:16 AM EDT 7:41 PM EDT
Nautical Twilight 5:42 AM EDT 8:14 PM EDT
Astronomical Twilight 5:08 AM EDT 8:49 PM EDT
Moon 4:37 AM EDT (3/27) 3:54 PM EDT (3/27)
Length of Visible Light 13h 25m
Length of Day
12h 29m
Waning Crescent, 13% of the Moon is Illuminated
Mar 27
Waning Crescent
Mar 30
New
Apr 7
First Quarter
Apr 15
Full
Apr 22
Last Quarter

Hourly Weather History & Observations

Time (EDT) Temp. Windchill Dew Point Humidity Pressure Visibility Wind Dir Wind Speed Gust Speed Precip Events Conditions
12:54 AM 16.0 °F 2.3 °F 3.9 °F 59% 30.14 in 10.0 mi WNW 12.7 mph 21.9 mph N/A   Clear
1:54 AM 15.1 °F 3.3 °F 3.9 °F 61% 30.17 in 10.0 mi NW 9.2 mph - N/A   Clear
2:54 AM 15.1 °F 5.2 °F 3.9 °F 61% 30.18 in 10.0 mi WNW 6.9 mph 17.3 mph N/A   Clear
3:54 AM 14.0 °F 2.0 °F 3.9 °F 64% 30.21 in 10.0 mi West 9.2 mph - N/A   Clear
4:54 AM 14.0 °F 2.9 °F 3.9 °F 64% 30.25 in 10.0 mi West 8.1 mph - N/A   Clear
5:54 AM 12.9 °F 5.2 °F 3.0 °F 65% 30.29 in 10.0 mi SW 4.6 mph - N/A   Clear
6:54 AM 14.0 °F 8.2 °F 1.9 °F 59% 30.31 in 10.0 mi Variable 3.5 mph - N/A   Clear
7:54 AM 15.1 °F 5.2 °F 3.9 °F 61% 30.32 in 10.0 mi WSW 6.9 mph - N/A   Clear
8:54 AM 18.0 °F 5.4 °F 5.0 °F 57% 30.35 in 10.0 mi WNW 11.5 mph - N/A   Clear
9:54 AM 19.9 °F 8.6 °F 7.0 °F 57% 30.36 in 10.0 mi WNW 10.4 mph - N/A   Clear
10:54 AM 21.9 °F 13.4 °F 6.1 °F 51% 30.35 in 10.0 mi WNW 6.9 mph - N/A   Clear
11:54 AM 24.1 °F 19.7 °F 5.0 °F 44% 30.32 in 10.0 mi Variable 3.5 mph - N/A   Clear
12:54 PM 28.9 °F 20.4 °F 7.0 °F 40% 30.30 in 10.0 mi SW 9.2 mph - N/A   Clear
1:54 PM 30.9 °F 25.2 °F 6.1 °F 35% 30.28 in 10.0 mi Variable 5.8 mph - N/A   Clear
2:54 PM 33.1 °F 26.9 °F 7.0 °F 34% 30.25 in 10.0 mi Variable 6.9 mph - N/A   Clear
3:54 PM 34.0 °F 26.0 °F 9.0 °F 35% 30.25 in 10.0 mi WSW 10.4 mph - N/A   Clear
4:54 PM 35.1 °F 26.9 °F 8.1 °F 33% 30.23 in 10.0 mi WSW 11.5 mph - N/A   Clear
5:54 PM 36.0 °F 32.1 °F 9.0 °F 33% 30.23 in 10.0 mi SSW 4.6 mph - N/A   Scattered Clouds
6:54 PM 36.0 °F 30.3 °F 7.0 °F 30% 30.23 in 10.0 mi SSW 6.9 mph - N/A   Mostly Cloudy
7:54 PM 35.1 °F 30.1 °F 7.0 °F 31% 30.22 in 10.0 mi South 5.8 mph - N/A   Overcast
8:54 PM 35.1 °F 31.0 °F 8.1 °F 33% 30.21 in 10.0 mi Variable 4.6 mph - N/A   Overcast
9:54 PM 35.1 °F 28.6 °F 9.0 °F 34% 30.21 in 10.0 mi South 8.1 mph - N/A   Overcast
10:54 PM 34.0 °F 26.6 °F 9.0 °F 35% 30.20 in 10.0 mi South 9.2 mph - N/A   Overcast
11:54 PM 34.0 °F 26.0 °F 12.0 °F 40% 30.18 in 10.0 mi South 10.4 mph 20.7 mph N/A   Overcast